When you browse on this site, cookies collect data to enhance your experience and personalize the content and advertising you see.
Visit our Privacy Policy to learn more. By continuing to use the site, you agree to this use of cookies and data.
  • In Spain
  • List of Countries
  • For 7 days
  • Water Temperature
  • Satellite Maps
  • Weather Map
  • Weather Widgets
  • user-avatar
    Login

    Hourly Weather Atyrau

    Today, 25 June, Tuesday

    Time Temperature Precipitation Wind Pressure Humidity
    00:00 +32°C° 0 mm 2 mps 761 mmHg 20%
    01:00 +32°C° 0 mm 2 mps 761 mmHg 21%
    02:00 +31°C° 0 mm 1 mps 761 mmHg 23%
    03:00 +31°C° 0 mm 1 mps 760 mmHg 25%
    04:00 +32°C° 0 mm 2 mps 760 mmHg 24%
    05:00 +34°C° 0 mm 3 mps 761 mmHg 23%
    06:00 +35°C° 0 mm 4 mps 761 mmHg 22%
    07:00 +37°C° 0 mm 4 mps 761 mmHg 21%
    08:00 +38°C° 0 mm 3 mps 761 mmHg 19%
    09:00 +39°C° 0 mm 2 mps 761 mmHg 17%
    10:00 +40°C° 0 mm 4 mps 761 mmHg 18%
    11:00 +40°C° 0 mm 6 mps 761 mmHg 19%
    12:00 +39°C° 0 mm 8 mps 761 mmHg 20%
    13:00 +40°C° 0 mm 7 mps 761 mmHg 20%
    14:00 +40°C° 0 mm 6 mps 761 mmHg 19%
    15:00 +40°C° 0 mm 6 mps 761 mmHg 21%
    16:00 +39°C° 0 mm 5 mps 761 mmHg 22%
    17:00 +38°C° 0 mm 4 mps 760 mmHg 23%
    18:00 +37°C° 0 mm 3 mps 760 mmHg 24%
    19:00 +35°C° 0 mm 6 mps 760 mmHg 34%
    20:00 +32°C° 0 mm 9 mps 761 mmHg 44%
    21:00 +29°C° 0 mm 13 mps 761 mmHg 54%
    22:00 +29°C° 0 mm 11 mps 761 mmHg 53%
    23:00 +28°C° 0 mm 9 mps 761 mmHg 52%

    Tomorrow, 26 June, Wednesday

    Time Temperature Precipitation Wind Pressure Humidity
    00:00 +28°C° 0 mm 7 mps 760 mmHg 51%
    01:00 +28°C° 0 mm 7 mps 760 mmHg 52%
    02:00 +28°C° 0 mm 7 mps 760 mmHg 52%
    03:00 +27°C° 0 mm 7 mps 760 mmHg 53%
    04:00 +26°C° 0.2 mm 8 mps 761 mmHg 59%
    05:00 +26°C° 0.2 mm 8 mps 761 mmHg 66%
    06:00 +24°C° 0.2 mm 8 mps 761 mmHg 72%
    07:00 +24°C° 0.2 mm 8 mps 761 mmHg 68%
    08:00 +26°C° 0.2 mm 8 mps 761 mmHg 65%
    09:00 +27°C° 0.2 mm 8 mps 761 mmHg 61%
    10:00 +28°C° 0 mm 8 mps 762 mmHg 54%
    11:00 +29°C° 0 mm 7 mps 762 mmHg 46%
    12:00 +30°C° 0 mm 7 mps 762 mmHg 39%
    13:00 +32°C° 0 mm 7 mps 762 mmHg 34%
    14:00 +33°C° 0 mm 7 mps 762 mmHg 30%
    15:00 +34°C° 0 mm 7 mps 761 mmHg 25%
    16:00 +34°C° 0 mm 8 mps 761 mmHg 23%
    17:00 +33°C° 0 mm 8 mps 761 mmHg 20%
    18:00 +32°C° 0 mm 8 mps 761 mmHg 18%
    19:00 +30°C° 0 mm 7 mps 761 mmHg 21%
    20:00 +28°C° 0 mm 6 mps 762 mmHg 23%
    21:00 +27°C° 0 mm 5 mps 762 mmHg 26%
    22:00 +26°C° 0 mm 5 mps 762 mmHg 28%
    23:00 +25°C° 0 mm 5 mps 762 mmHg 31%

    Day after tomorrow, 27 June, Thursday

    Time Temperature Precipitation Wind Pressure Humidity
    00:00 +24°C° 0 mm 6 mps 762 mmHg 33%
    01:00 +23°C° 0 mm 5 mps 762 mmHg 37%
    02:00 +22°C° 0 mm 5 mps 762 mmHg 40%
    03:00 +22°C° 0 mm 5 mps 762 mmHg 43%
    04:00 +22°C° 0 mm 5 mps 762 mmHg 42%
    05:00 +23°C° 0 mm 5 mps 762 mmHg 41%
    06:00 +23°C° 0 mm 4 mps 761 mmHg 40%
    07:00 +25°C° 0 mm 4 mps 761 mmHg 37%
    08:00 +27°C° 0 mm 4 mps 761 mmHg 34%
    09:00 +28°C° 0 mm 4 mps 761 mmHg 31%
    10:00 +28°C° 0 mm 4 mps 761 mmHg 28%
    11:00 +29°C° 0 mm 5 mps 761 mmHg 26%
    12:00 +30°C° 0 mm 5 mps 760 mmHg 24%
    13:00 +30°C° 0 mm 5 mps 760 mmHg 23%
    14:00 +30°C° 0 mm 5 mps 760 mmHg 21%
    15:00 +32°C° 0 mm 5 mps 759 mmHg 20%
    16:00 +30°C° 0 mm 5 mps 759 mmHg 21%
    17:00 +30°C° 0 mm 4 mps 759 mmHg 22%
    18:00 +30°C° 0 mm 4 mps 758 mmHg 23%
    19:00 +29°C° 0 mm 4 mps 758 mmHg 26%
    20:00 +27°C° 0 mm 3 mps 758 mmHg 28%
    21:00 +26°C° 0 mm 3 mps 758 mmHg 31%
    22:00 +26°C° 0 mm 3 mps 758 mmHg 37%
    23:00 +25°C° 0 mm 3 mps 758 mmHg 43%

    28 June, Friday

    Time Temperature Precipitation Wind Pressure Humidity
    00:00 +25°C° 0 mm 3 mps 757 mmHg 49%
    01:00 +24°C° 0 mm 2 mps 757 mmHg 52%
    02:00 +23°C° 0 mm 2 mps 757 mmHg 54%
    03:00 +23°C° 0 mm 1 mps 757 mmHg 57%
    04:00 +24°C° 0 mm 1 mps 757 mmHg 52%
    05:00 +25°C° 0 mm 1 mps 757 mmHg 48%
    06:00 +27°C° 0 mm 1 mps 756 mmHg 43%
    07:00 +28°C° 0 mm 2 mps 756 mmHg 39%
    08:00 +29°C° 0 mm 2 mps 756 mmHg 35%
    09:00 +30°C° 0 mm 3 mps 756 mmHg 30%
    10:00 +31°C° 0 mm 3 mps 756 mmHg 30%
    11:00 +33°C° 0 mm 4 mps 755 mmHg 29%
    12:00 +33°C° 0 mm 5 mps 755 mmHg 29%
    13:00 +33°C° 0 mm 5 mps 755 mmHg 28%
    14:00 +34°C° 0 mm 5 mps 755 mmHg 27%
    15:00 +34°C° 0 mm 5 mps 754 mmHg 27%
    16:00 +33°C° 0 mm 4 mps 754 mmHg 25%
    17:00 +33°C° 0 mm 4 mps 754 mmHg 22%
    18:00 +33°C° 0 mm 3 mps 754 mmHg 20%
    19:00 +30°C° 0 mm 3 mps 754 mmHg 22%
    20:00 +29°C° 0 mm 2 mps 754 mmHg 25%
    21:00 +28°C° 0 mm 2 mps 754 mmHg 27%
    22:00 +27°C° 0 mm 2 mps 754 mmHg 27%
    23:00 +27°C° 0 mm 2 mps 753 mmHg 27%

    29 June, Saturday

    Time Temperature Precipitation Wind Pressure Humidity
    00:00 +27°C° 0 mm 2 mps 753 mmHg 27%
    01:00 +26°C° 0 mm 2 mps 753 mmHg 27%
    02:00 +26°C° 0 mm 2 mps 753 mmHg 27%
    03:00 +26°C° 0 mm 3 mps 753 mmHg 27%
    04:00 +28°C° 0 mm 4 mps 753 mmHg 25%
    05:00 +29°C° 0 mm 4 mps 753 mmHg 23%
    06:00 +32°C° 0 mm 5 mps 753 mmHg 21%
    07:00 +34°C° 0 mm 6 mps 752 mmHg 20%
    08:00 +35°C° 0 mm 6 mps 752 mmHg 19%
    09:00 +38°C° 0 mm 7 mps 752 mmHg 18%
    10:00 +39°C° 0 mm 7 mps 752 mmHg 17%
    11:00 +39°C° 0 mm 7 mps 751 mmHg 17%
    12:00 +40°C° 0 mm 7 mps 751 mmHg 17%
    13:00 +39°C° 0 mm 7 mps 751 mmHg 18%
    14:00 +38°C° 0 mm 8 mps 751 mmHg 20%
    15:00 +37°C° 0 mm 8 mps 751 mmHg 22%
    16:00 +34°C° 0.2 mm 7 mps 751 mmHg 29%
    17:00 +30°C° 0.2 mm 7 mps 751 mmHg 36%
    18:00 +28°C° 0.2 mm 6 mps 752 mmHg 44%
    19:00 +28°C° 0 mm 6 mps 752 mmHg 46%
    20:00 +28°C° 0 mm 6 mps 752 mmHg 48%
    21:00 +28°C° 0 mm 6 mps 753 mmHg 50%
    22:00 +27°C° 0.1 mm 5 mps 753 mmHg 54%
    23:00 +26°C° 0.1 mm 3 mps 752 mmHg 58%

    30 June, Sunday

    Time Temperature Precipitation Wind Pressure Humidity
    00:00 +26°C° 0.1 mm 2 mps 752 mmHg 61%
    01:00 +26°C° 0 mm 2 mps 752 mmHg 60%
    02:00 +26°C° 0 mm 2 mps 752 mmHg 58%
    03:00 +26°C° 0 mm 2 mps 753 mmHg 57%
    04:00 +27°C° 0.1 mm 3 mps 753 mmHg 56%
    05:00 +27°C° 0.1 mm 4 mps 753 mmHg 55%
    06:00 +27°C° 0.1 mm 5 mps 753 mmHg 54%
    07:00 +28°C° 0.1 mm 5 mps 753 mmHg 51%
    08:00 +29°C° 0.1 mm 6 mps 753 mmHg 48%
    09:00 +30°C° 0.1 mm 7 mps 753 mmHg 45%
    10:00 +29°C° 0.2 mm 7 mps 753 mmHg 50%
    11:00 +28°C° 0.2 mm 8 mps 753 mmHg 55%
    12:00 +27°C° 0.2 mm 8 mps 753 mmHg 59%
    13:00 +26°C° 0.4 mm 8 mps 753 mmHg 65%
    14:00 +24°C° 0.4 mm 8 mps 753 mmHg 70%
    15:00 +23°C° 0.4 mm 7 mps 753 mmHg 76%
    16:00 +24°C° 0.1 mm 7 mps 753 mmHg 71%
    17:00 +24°C° 0.1 mm 6 mps 753 mmHg 67%
    18:00 +26°C° 0.1 mm 6 mps 754 mmHg 63%
    19:00 +25°C° 0 mm 5 mps 754 mmHg 66%
    20:00 +23°C° 0 mm 4 mps 754 mmHg 69%
    21:00 +24°C° 0 mm 3 mps 755 mmHg 72%
    22:00 +22°C° 0 mm 3 mps 755 mmHg 74%
    23:00 +22°C° 0 mm 3 mps 755 mmHg 75%
    Show more